This demonstration page uses our WeatherBlox Daily Observations layout. Learn more.

Left ArrowRight Arrow

53.62937, 11.41316

Hourly Observations for February 28, 2018

Temp ( °F °C ) Dew Point ( °F °C ) Humidity (%) Winds ( mph kmh ) Pressure ( in mb ) Visibility ( mi km ) Precip ( " mm )
7:50 am 07:50 Mostly Sunny 9 -13 1 -17 72 72 ENE 8 13 30.42 1030 7 11 N/A
8:20 am 08:20 Mostly Sunny 9 -13 1 -17 72 72 ENE 12 19 30.42 1030 7 11 N/A
8:50 am 08:50 Mostly Sunny 9 -13 3 -16 78 78 ENE 13 20 30.42 1030 7 11 N/A
9:20 am 09:20 Mostly Sunny 10 -12 3 -16 72 72 ENE 14 22 30.42 1030 7 11 N/A
9:50 am 09:50 Mostly Sunny 12 -11 3 -16 67 67 ENE 14 22 30.42 1030 7 11 N/A
10:20 am 10:20 Mostly Sunny 14 -10 3 -16 62 62 ENE 16 26 30.42 1030 7 11 N/A
10:50 am 10:50 Mostly Sunny 14 -10 3 -16 62 62 ENE 17 28 30.42 1030 7 11 N/A
11:20 am 11:20 Mostly Sunny 16 -9 5 -15 62 62 ENE 14 22 30.42 1030 7 11 N/A
11:50 am 11:50 Mostly Sunny 16 -9 3 -16 57 57 ENE 16 26 30.45 1031 7 11 N/A
12:20 pm 12:20 Mostly Sunny 16 -9 3 -16 57 57 ENE 14 22 30.45 1031 30 48 N/A
12:50 pm 12:50 Mostly Sunny 16 -9 3 -16 57 57 ENE 16 26 30.42 1030 7 11 N/A
1:20 pm 13:20 Mostly Sunny 18 -8 3 -16 53 53 ENE 16 26 30.42 1030 7 11 N/A
1:50 pm 13:50 Mostly Sunny 18 -8 3 -16 53 53 ENE 15 24 30.42 1030 7 11 N/A
2:20 pm 14:20 Mostly Sunny 18 -8 3 -16 53 53 ENE 15 24 30.42 1030 7 11 N/A
2:50 pm 14:50 Mostly Sunny 18 -8 3 -16 53 53 ENE 16 26 30.42 1030 7 11 N/A
3:20 pm 15:20 Mostly Sunny 18 -8 3 -16 53 53 NE 15 24 30.42 1030 7 11 N/A
3:50 pm 15:50 Mostly Sunny 18 -8 3 -16 53 53 ENE 16 26 30.42 1030 7 11 N/A
4:20 pm 16:20 Mostly Sunny 16 -9 3 -16 57 57 ENE 16 26 30.42 1030 7 11 N/A
4:50 pm 16:50 Mostly Sunny 16 -9 3 -16 57 57 ENE 16 26 30.42 1030 7 11 N/A
5:20 pm 17:20 Mostly Sunny 16 -9 3 -16 57 57 ENE 15 24 30.42 1030 7 11 N/A
5:50 pm 17:50 Mostly Clear 14 -10 3 -16 62 62 NE 9 15 30.39 1029 7 11 N/A

Powered by AerisWeather